Simultaneous Nadir Overpasses (SNOs) Predictions

Prediction of SNOs between AQUA and GOES-15 Satellite Orbit:

Table of predicted SNOs for the next 14.0 days since TLE Epoch: 9/5/2025
Index Date Time (AQUA) AQUA Lat,Lon GOES-15 Lat,Lon Distance(km) Time Diff (sec)
1 09/05/2025 22:55:20 0.02, 59.23 -0.47, 61.45 252.68 80
2 09/07/2025 22:34:45 -1.13, 64.26 -0.50, 61.42 323.72 80
3 09/08/2025 10:53:58 0.10, 59.63 0.46, 61.40 202.03 80
4 09/10/2025 10:33:21 1.18, 64.68 0.49, 61.38 375.04 80
5 09/10/2025 22:52:25 -0.18, 60.07 -0.45, 61.38 148.54 80
6 09/12/2025 22:31:47 -1.26, 65.13 -0.48, 61.37 427.07 80
7 09/13/2025 10:50:59 0.26, 60.48 0.44, 61.36 99.60 80
8 09/15/2025 10:30:20 1.34, 65.54 0.47, 61.35 476.28 80
9 09/15/2025 22:49:24 -0.37, 60.94 -0.43, 61.35 46.65 80
10 09/18/2025 10:47:56 0.42, 61.36 0.43, 61.35 1.94 80
